www.pogodaiklimat.ru

Погода и климат >> Архив погоды >> Украина >> Любешов


ПОГОДА в Любешове

  • Прогноз погоды в Любешове
  • Монитор погоды в Любешове
  • Климат города

АРХИВ ПОГОДЫ в Любешове

Время (UTC), дата Ветер
(напр.,м/с)
 
Видим.   Явления Облачность Т
(С)
Тd
(С)
f
(%)
Тe
(С)
Тes
(С)
Комфортность P
(гПа)
Po
(гПа)
Тmin
(С)
Tmax
(С)
R
(мм)
R24
(мм)
S
(см)
06 13.09 штиль 0 10 км 3/0
[Ci fib]
+16.2 +13.4 83 +16 +18 1018.1 1018.0 +15.2
09 13.09 ЮВ 1 10 км ясно +24.1 +15.6 59 +27 +37 жарко 1018.0 1000.4
12 13.09 СЗ 2 10 км 5/1 1000 м
[Cu med, cong Ac trans Ci]
+26.5 +15.5 51 +30 +35 душно 1017.0 1017.0
15 13.09 С 3 10 км 6 баллов +25.5 +15.8 55 +29 +29 душно 1016.0 998.6
18 13.09 С 1 10 км 6/3 600 м
[Cb calv Ac trans Ci fib]
+19.7 +15.7 78 +23 +23 комфорт 1017.4 1017.0 +27.1
21 13.09 штиль 0 10 км ясно +16.6 +14.8 89 +16 +16 1017.0 999.0
00 14.09 СВ 2 10 км ясно +15.0 +13.2 89 +15 +15 1016.6 1017.0
03 14.09 штиль 0 н/о ясно +13.0 +11.6 91 +12 +12 1017.0 998.7
06 14.09 С 2 10 км 6/0
[Ci ing]
+14.5 +12.5 88 +14 +16 1017.4 1017.0 +13.0
09 14.09 СВ 2 10 км 10 баллов +21.7 +15.1 66 +25 +25 комфорт 1017.0 999.3
12 14.09 СВ 2 10 км 8/0
[Ac lent]
+23.9 +15.8 60 +27 +30 жарко 1016.3 1016.0
15 14.09 С 3 н/о 8 баллов +21.3 +14.9 67 +24 +25 комфорт 1016.4 998.7
18 14.09 С 2 10 км гроза без осадков 9/9 660 м
[Cb cap]
+18.4 +13.7 74 +19 +19 1018.1 1018.0 +24.9
21 14.09 штиль 0 10 км 10 баллов +15.0 +12.9 87 +15 +15 1018.0 999.9
00 15.09 СВ 1 10 км {гроза} 9/0
[Ci]
+13.9 +11.5 85 +14 +14 1017.6 1018.0
03 15.09 СЗ 3 4000 м 10 баллов +13.3 +11.5 89 +12 +12 1018.0 999.8
06 15.09 З 2 10 км {гроза, ливн. осадки} 9/6 660 м
[Cb cap Ac cuf]
+13.4 +12.3 93 +13 +13 1016.9 1017.0 +13.1 7
09 15.09 З 2 10 км 10 баллов +15.0 +13.5 91 +15 +15 1017.0 998.9
12 15.09 З 3 10 км 10/10 720 м
[Sc]
+15.7 +13.8 88 +15 +15 1017.1 1017.0
15 15.09 СЗ 2 10 км 10 баллов +17.4 +14.3 82 +18 +18 1017.0 999.1
18 15.09 штиль 0 10 км 4/4 600 м
[Sc]
+14.8 +13.2 90 +14 +14 1018.8 1019.0 +18.3
21 15.09 СЗ 2 10 км 10 баллов +15.1 +14.0 93 +15 +15 1019.0 1000.9
00 16.09 З 2 4000 м дымка ясно +12.6 +11.9 95 +12 +12 1020.0 1020.0
03 16.09 З 3 2000 м дымка 10 баллов +11.8 +11.3 97 +10 +10 1021.0 1002.6
06 16.09 З 2 4000 м дымка {туман} 3/3 600 м
[Cu hum]
+12.2 +11.8 97 +11 +12 1021.9 1022.0 +11.8
09 16.09 СЗ 4 10 км 6 баллов +17.6 +9.5 59 +17 +19 1023.0 1004.9
12 16.09 З 5 10 км 8/8 800 м
[Sc]
+17.4 +8.4 55 +17 +18 1022.7 1023.0
15 16.09 З 4 н/о 4 балла +18.6 +4.7 40 +19 +19 1023.3 1005.3
18 16.09 штиль 0 10 км 3/0
[Ac und Ci fib]
+11.9 +9.3 84 +11 +11 1024.4 1024.0 +19.7
21 16.09 штиль 0 10 км ясно +8.4 +7.6 95 +7 +7 1025.0 1006.3
00 17.09 Ю 1 10 км ясно +6.9 +6.2 95 +6 +6 1025.4 1025.0
03 17.09 штиль 0 10 км 3 балла +5.7 +5.0 95 +5 +5 1026.0 1007.1
06 17.09 Ю 1 10 км 6/0
[Ac und Ci]
+8.7 +7.2 90 +8 +9 1025.9 1007.4 +5.5
09 17.09 ЮЗ 3 10 км 3 балла +18.6 +8.5 52 +19 +24 1025.0 1007.0
12 17.09 З 3 10 км 5/0
[Ac trans]
+20.6 +7.9 44 +22 +26 комфорт 1023.3 1023.0
15 17.09 ЮЗ 2 10 км 10 баллов +21.3 +9.5 47 +23 +23 комфорт 1022.0 1004.2
18 17.09 штиль 0 10 км 4/0
[Ci]
+14.1 +11.3 83 +14 +14 1022.6 1023.0 +22.3
21 17.09 Ю 1 10 км ясно +11.8 +10.0 89 +12 +12 1022.0 1003.6
00 18.09 штиль 0 10 км ясно +10.1 +8.2 88 +9 +9 1022.4 1022.0
03 18.09 штиль 0 н/о ясно +9.4 +8.2 92 +9 +9 1022.6 1004.0
06 18.09 штиль 0 10 км 6/0
[Ci sp]
+10.6 +9.2 91 +10 +12 1023.0 1023.0 +9.0
09 18.09 ЮЗ 1 10 км 10 баллов +21.7 +12.0 54 +24 +24 комфорт 1023.0 1005.2
12 18.09 ЮЗ 2 10 км 9/0
[Ci]
+24.1 +10.8 43 +25 +31 комфорт 1021.5 1022.0
15 18.09 ЮЗ 1 10 км 10 баллов +24.5 +12.1 46 +26 +26 жарко 1020.0 1002.4
18 18.09 штиль 0 10 км 1/0
[Ac und]
+15.7 +13.4 86 +15 +15 1021.1 1021.0 +25.2
21 18.09 штиль 0 10 км 3 балла +12.4 +11.5 94 +12 +12 1021.0 1002.7
00 19.09 штиль 0 10 км ясно +12.0 +11.2 95 +11 +11 1021.4 1021.0
03 19.09 штиль 0 10 км ясно +11.4 +10.6 95 +11 +11 1021.0 1002.6
06 19.09 Ю 2 10 км 3/0
[Ci fib]
+14.8 +12.4 86 +14 +16 1021.2 1021.0 +10.9
09 19.09 ЮЗ 3 10 км 3 балла +23.9 +13.4 52 +26 +30 жарко 1020.0 1002.4
12 19.09 З 3 10 км 3/3 1000 м
[Sc]
+27.5 +12.6 40 +29 +33 жарко 1019.5 1020.0
15 19.09 З 3 10 км 3 балла +26.8 +12.4 41 +28 +29 жарко 1019.0 1001.6
18 19.09 штиль 0 10 км 10 баллов +18.8 +14.3 75 +20 +20 1020.0 1002.1 +28.1
21 19.09 ЮЗ 1 10 км 3 балла +16.2 +13.3 83 +17 +17 1020.0 1001.9
00 20.09 штиль 0 4000 м дымка ясно +13.3 +12.2 93 +13 +13 1021.0 1002.7
12 20.09 3 н/о 3 балла +27.5 +12.7 40 +29 +33 жарко 1018.7 1001.3

 

Местоположение метеостанции Любешов (Волынская область, Украина): широта 51.67 долгота 25.27 высота над уровнем моря 152 м.

В архиве по умолчанию представлена погода в Любешове за последнюю неделю. Архивные данные за месяц целиком и за предыдущие месяцы, начиная с января 2011 года, Вы можете получить, выбрав интересующий диапазон дат из раскрывающегося списка и нажав кнопку "Ввод!".


*Определитесь, кто Вы:
робот инопланетянин человек

Внимание! Время в таблицах - всемирное. Для получения местного времени необходимо прибавить поправку, которая в Любешове равна 2 ч.

Смотрите также архив погоды в соседних городах и на ближайших метеорологических станциях:

Погода в Маневичах (Волынская область, Украина) (47 км)
Погода в Свитязи (Волынская область, Украина) (54 км)
Погода в Дрогичине (Брестская область, Беларусь) (60 км)
Погода в Ковеле (Волынская область, Украина) (65 км)
Погода в Пинске (Брестская область, Беларусь) (74 км)
Погода в Сарнах (Ровенская область, Украина) (103 км)
Погода в Луцке (Волынская область, Украина) (109 км)
Погода в Пружанах (Брестская область, Беларусь) (111 км)
Погода в Владимире-Волынском (Волынская область, Украина) (114 км)
Погода в Ивацевичах (Брестская область, Беларусь) (115 км)

Пояснения к столбцам:

Ветер - указаны скорость ветра в м/с - средняя за 10 мин, порывы в срок и между сроками (в фигурных скобках) и направление, откуда дует ветер: С - северный, СВ - северо-восточный, В - восточный, ЮВ - юго-восточный, Ю - южный, ЮЗ - юго-западный, З - западный, СЗ - северо-западный.
Видимость - горизонтальная дальность видимости в метрах или километрах. При видимости от 1 до 10 км при отсутствии осадков обычно наблюдается дымка, при ухудшении видимости до 1 км и менее - туман. В сухую погоду видимость может ухудшаться дымом, пылью или мглою.
Явления - указаны атмосферные явления, наблюдавшиеся в срок или в последний час перед сроком; фигурными скобками обозначены явления, наблюдавшиеся между сроками (за 1-3 часа до срока); квадратными скобками обозначены град или гололедные отложения с указанием их диаметра в мм.
Облачность - указаны через наклонную черту общая и нижняя облачность в баллах и высота нижней границы облаков в метрах; квадратными скобками обозначены формы облаков: Ci - перистые, Cs - перисто-слоистые, Cc - перисто-кучевые, Ac - высококучевые, As - высокослоистые, Sc - слоисто-кучевые, Ns - слоисто-дождевые, Cu - кучевые, Cb - кучево-дождевые. Подробнее классификацию облаков см. в Атласе облаков (PDF).
T - Температура воздуха - температура, измеренная на высоте 2 м над землей.
Td - Температура точки росы - температура, при понижении до которой содержащийся в воздухе водяной пар достигнет насыщения.
f - Относительная влажность воздуха - влажноcть воздуха, измеренная на высоте 2 м над землей.
Te - Эффективная температура - температура, которую ощущает одетый по сезону человек в тени. Характеристика душности погоды. При расчете учитывается влияние влажности воздуха и скорости ветра на теплоощущения человека.
Tes - Эффективная температура на солнце - температура, которую ощущает человек, с поправкой на солнечный нагрев. Характеристика знойности погоды. Зависит от высоты солнца над горизонтом, облачности и скорости ветра. Ночью, в пасмурную погоду, а также при ветре 12 м/с и более поправка равна нулю.
P - Атмосферное давление - приведенное к уровню моря атмосферное давление.
Po - Атмосферное давление - измеренное на уровне метеостанции атмосферное давление.
Tmin - Минимальная температура - минимум температуры воздуха на высоте 2 м над землей.
Tmax - Максимальная температура - максимум температуры воздуха на высоте 2 м над землей.
R - Количество осадков - Количество выпавших осадков за период времени, мм. При наведении курсора мыши на число - период времени, за который выпало указанное количество осадков.
R24 - Количество осадков - Количество выпавших осадков за 24 часа, мм.
S - Снежный покров - Высота снежного покрова, см. При наведении курсора мыши на число - состояние снежного покрова и степень покрытия местности в баллах.